Time,TemperatureF,DewpointF,PressureIn,WindDirection,WindDirectionDegrees,WindSpeedMPH,WindSpeedGustMPH,Humidity,HourlyPrecipIn,Conditions,Clouds,dailyrainin,SolarRadiationWatts/m^2,SoftwareType,DateUTC
2013-04-09 00:02:00,33.0,29.0,-100.00,North,359,0.0,0.0,86,0.00,,,0.00,0.000000,,2013-04-09 07:02:00,
2013-04-09 00:32:00,32.0,29.0,-100.00,NNW,336,0.0,0.0,89,0.00,,,-99.99,0.000000,,2013-04-09 07:32:00,
2013-04-09 00:42:00,32.0,29.0,-100.00,NNW,336,0.0,0.0,89,0.00,,,-99.99,0.000000,,2013-04-09 07:42:00,
2013-04-09 00:52:00,32.0,29.0,-100.00,NNW,336,0.0,0.0,89,0.00,,,-99.99,0.000000,,2013-04-09 07:52:00,
2013-04-09 01:02:00,32.0,29.0,-100.00,NNW,336,0.0,0.0,89,0.00,,,-99.99,0.000000,,2013-04-09 08:02:00,
2013-04-09 01:32:00,33.0,31.0,-100.00,NNW,345,0.0,0.0,91,0.00,,,0.00,0.000000,,2013-04-09 08:32:00,
2013-04-09 01:42:00,33.0,31.0,-100.00,NNW,345,0.0,0.0,91,0.00,,,0.00,0.000000,,2013-04-09 08:42:00,
2013-04-09 01:52:00,33.0,31.0,-100.00,NNW,345,0.0,0.0,91,0.00,,,0.00,0.000000,,2013-04-09 08:52:00,
2013-04-09 02:02:00,33.0,31.0,-100.00,NNW,345,0.0,0.0,91,0.00,,,0.00,0.000000,,2013-04-09 09:02:00,
2013-04-09 02:33:00,32.0,30.0,-100.00,North,350,0.0,0.0,93,0.00,,,0.00,0.000000,,2013-04-09 09:33:00,
2013-04-09 02:44:00,32.0,30.0,-100.00,North,350,0.0,0.0,93,0.00,,,0.00,0.000000,,2013-04-09 09:44:00,
2013-04-09 02:52:00,32.0,30.0,-100.00,North,350,0.0,0.0,93,0.00,,,0.00,0.000000,,2013-04-09 09:52:00,
2013-04-09 03:03:00,32.0,30.0,-100.00,North,350,0.0,0.0,93,0.00,,,0.00,0.000000,,2013-04-09 10:03:00,
2013-04-09 03:33:00,32.0,30.0,-100.00,ENE,73,0.0,0.0,92,0.00,,,0.00,0.000000,,2013-04-09 10:33:00,
2013-04-09 03:43:00,32.0,30.0,-100.00,ENE,73,0.0,0.0,92,0.00,,,0.00,0.000000,,2013-04-09 10:43:00,
2013-04-09 03:53:00,32.0,30.0,-100.00,ENE,73,0.0,0.0,92,0.00,,,0.00,0.000000,,2013-04-09 10:53:00,
2013-04-09 04:02:00,32.0,30.0,-100.00,ENE,73,0.0,0.0,92,0.00,,,0.00,0.000000,,2013-04-09 11:02:00,
2013-04-09 04:32:00,32.0,30.0,-100.00,North,352,0.0,0.0,92,0.00,,,0.00,0.000000,,2013-04-09 11:32:00,
2013-04-09 04:42:00,32.0,30.0,-100.00,North,352,0.0,0.0,92,0.00,,,0.00,0.000000,,2013-04-09 11:42:00,
2013-04-09 04:52:00,32.0,30.0,-100.00,North,352,0.0,0.0,92,0.00,,,0.00,0.000000,,2013-04-09 11:52:00,
2013-04-09 05:02:00,32.0,30.0,-100.00,North,352,0.0,0.0,92,0.00,,,0.00,0.000000,,2013-04-09 12:02:00,
2013-04-09 05:33:00,32.0,30.0,-100.00,NNW,347,0.0,0.0,91,0.00,,,0.00,0.000000,,2013-04-09 12:33:00,
2013-04-09 05:43:00,32.0,30.0,-100.00,NNW,347,0.0,0.0,91,0.00,,,0.00,0.000000,,2013-04-09 12:43:00,
2013-04-09 05:53:00,32.0,30.0,-100.00,NNW,347,0.0,0.0,91,0.00,,,0.00,0.000000,,2013-04-09 12:53:00,
2013-04-09 06:02:00,32.0,30.0,-100.00,NNW,347,0.0,0.0,91,0.00,,,0.00,0.000000,,2013-04-09 13:02:00,
2013-04-09 06:33:00,32.0,30.0,-100.00,NNW,344,0.0,0.0,91,0.00,,,0.00,0.000000,,2013-04-09 13:33:00,
2013-04-09 06:43:00,32.0,30.0,-100.00,NNW,344,0.0,0.0,91,0.00,,,0.00,0.000000,,2013-04-09 13:43:00,
2013-04-09 06:53:00,32.0,30.0,-100.00,NNW,344,0.0,0.0,91,0.00,,,0.00,0.000000,,2013-04-09 13:53:00,
2013-04-09 07:02:00,32.0,30.0,-100.00,NNW,344,0.0,0.0,91,0.00,,,0.00,0.000000,,2013-04-09 14:02:00,
2013-04-09 07:33:00,32.0,30.0,-100.00,North,354,0.0,0.0,92,0.00,,,0.00,11.000000,,2013-04-09 14:33:00,
2013-04-09 07:43:00,32.0,30.0,-100.00,North,354,0.0,0.0,92,0.00,,,0.00,11.000000,,2013-04-09 14:43:00,
2013-04-09 07:52:00,32.0,30.0,-100.00,North,354,0.0,0.0,92,0.00,,,0.00,11.000000,,2013-04-09 14:52:00,
2013-04-09 08:01:00,32.0,30.0,-100.00,North,354,0.0,0.0,92,0.00,,,0.00,11.000000,,2013-04-09 15:01:00,
2013-04-09 08:34:00,38.0,32.0,-100.00,SE,144,0.0,0.0,80,0.00,,,0.00,161.000000,,2013-04-09 15:34:00,
2013-04-09 09:03:00,38.0,32.0,-100.00,SE,144,0.0,0.0,80,0.00,,,0.00,161.000000,,2013-04-09 16:03:00,
2013-04-09 09:34:00,42.0,34.0,-100.00,SE,144,0.0,3.0,72,0.00,,,0.00,352.000000,,2013-04-09 16:34:00,
2013-04-09 09:42:00,42.0,34.0,-100.00,SE,144,0.0,3.0,72,0.00,,,0.00,352.000000,,2013-04-09 16:42:00,
2013-04-09 09:53:00,42.0,34.0,-100.00,SE,144,0.0,3.0,72,0.00,,,0.00,352.000000,,2013-04-09 16:53:00,
2013-04-09 10:02:00,42.0,34.0,-100.00,SE,144,0.0,3.0,72,0.00,,,0.00,352.000000,,2013-04-09 17:02:00,
2013-04-09 10:33:00,45.0,32.0,-100.00,ESE,119,3.0,7.0,60,0.00,,,0.00,581.000000,,2013-04-09 17:33:00,
2013-04-09 10:43:00,45.0,32.0,-100.00,ESE,119,3.0,7.0,60,0.00,,,0.00,581.000000,,2013-04-09 17:43:00,
2013-04-09 10:53:00,45.0,32.0,-100.00,ESE,119,3.0,7.0,60,0.00,,,0.00,581.000000,,2013-04-09 17:53:00,
2013-04-09 11:02:00,45.0,32.0,-100.00,ESE,119,3.0,7.0,60,0.00,,,0.00,581.000000,,2013-04-09 18:02:00,
2013-04-09 11:33:00,45.0,32.0,-100.00,ENE,76,4.0,10.0,59,0.00,,,0.00,600.000000,,2013-04-09 18:33:00,
2013-04-09 11:43:00,45.0,32.0,-100.00,ENE,76,4.0,10.0,59,0.00,,,0.00,600.000000,,2013-04-09 18:43:00,
2013-04-09 11:53:00,45.0,32.0,-100.00,ENE,76,4.0,10.0,59,0.00,,,0.00,600.000000,,2013-04-09 18:53:00,
2013-04-09 12:02:00,45.0,32.0,-100.00,ENE,76,4.0,10.0,59,0.00,,,0.00,600.000000,,2013-04-09 19:02:00,
2013-04-09 12:52:00,47.0,32.0,-100.00,SSW,209,4.0,8.0,56,0.00,,,0.00,416.000000,,2013-04-09 19:52:00,
2013-04-09 13:02:00,47.0,32.0,-100.00,SSW,209,4.0,8.0,56,0.00,,,0.00,416.000000,,2013-04-09 20:02:00,
2013-04-09 13:34:00,50.0,33.0,-100.00,SSE,162,7.0,11.0,52,0.00,,,0.00,690.000000,,2013-04-09 20:34:00,
2013-04-09 13:44:00,50.0,33.0,-100.00,SSE,162,7.0,11.0,52,0.00,,,0.00,690.000000,,2013-04-09 20:44:00,
2013-04-09 13:52:00,50.0,33.0,-100.00,SSE,162,7.0,11.0,52,0.00,,,0.00,690.000000,,2013-04-09 20:52:00,
2013-04-09 14:02:00,50.0,33.0,-100.00,SSE,162,7.0,11.0,52,0.00,,,0.00,690.000000,,2013-04-09 21:02:00,
2013-04-09 14:33:00,50.0,33.0,-100.00,South,171,7.0,16.0,51,0.00,,,0.00,743.000000,,2013-04-09 21:33:00,
2013-04-09 14:42:00,50.0,33.0,-100.00,South,171,7.0,16.0,51,0.00,,,0.00,743.000000,,2013-04-09 21:42:00,
2013-04-09 14:53:00,50.0,33.0,-100.00,South,171,7.0,16.0,51,0.00,,,0.00,743.000000,,2013-04-09 21:53:00,
2013-04-09 15:02:00,50.0,33.0,-100.00,South,171,7.0,16.0,51,0.00,,,0.00,743.000000,,2013-04-09 22:02:00,
2013-04-09 15:33:00,52.0,32.0,-100.00,South,175,7.0,14.0,46,0.00,,,0.00,758.000000,,2013-04-09 22:33:00,
2013-04-09 15:42:00,52.0,32.0,-100.00,South,175,7.0,14.0,46,0.00,,,0.00,758.000000,,2013-04-09 22:42:00,
2013-04-09 15:53:00,52.0,32.0,-100.00,South,175,7.0,14.0,46,0.00,,,0.00,758.000000,,2013-04-09 22:53:00,
2013-04-09 16:02:00,52.0,32.0,-100.00,South,175,7.0,14.0,46,0.00,,,0.00,758.000000,,2013-04-09 23:02:00,
2013-04-09 16:33:00,49.0,32.0,-100.00,South,178,5.0,13.0,52,0.00,,,0.00,313.000000,,2013-04-09 23:33:00,
2013-04-09 16:42:00,49.0,32.0,-100.00,South,178,5.0,13.0,52,0.00,,,0.00,313.000000,,2013-04-09 23:42:00,
2013-04-09 16:53:00,49.0,32.0,-100.00,South,178,5.0,13.0,52,0.00,,,0.00,313.000000,,2013-04-09 23:53:00,
2013-04-09 17:02:00,49.0,32.0,-100.00,South,178,5.0,13.0,52,0.00,,,0.00,313.000000,,2013-04-10 00:02:00,
2013-04-09 17:33:00,49.0,33.0,-100.00,South,178,3.0,11.0,53,0.00,,,-99.99,196.000000,,2013-04-10 00:33:00,
2013-04-09 17:42:00,49.0,33.0,-100.00,South,178,3.0,11.0,53,0.00,,,-99.99,196.000000,,2013-04-10 00:42:00,
2013-04-09 17:52:00,49.0,33.0,-100.00,South,178,3.0,11.0,53,0.00,,,-99.99,196.000000,,2013-04-10 00:52:00,
2013-04-09 18:02:00,49.0,33.0,-100.00,South,178,3.0,11.0,53,0.00,,,-99.99,196.000000,,2013-04-10 01:02:00,
2013-04-09 18:33:00,46.0,32.0,-100.00,South,175,3.0,9.0,57,0.00,,,0.00,95.000000,,2013-04-10 01:33:00,
2013-04-09 18:43:00,46.0,32.0,-100.00,South,175,3.0,9.0,57,0.00,,,0.00,95.000000,,2013-04-10 01:43:00,
2013-04-09 18:52:00,46.0,32.0,-100.00,South,175,3.0,9.0,57,0.00,,,0.00,95.000000,,2013-04-10 01:52:00,
2013-04-09 19:02:00,46.0,32.0,-100.00,South,175,3.0,9.0,57,0.00,,,0.00,95.000000,,2013-04-10 02:02:00,
2013-04-09 19:33:00,46.0,34.0,-100.00,South,178,1.0,8.0,62,0.00,,,0.00,70.000000,,2013-04-10 02:33:00,
2013-04-09 19:43:00,46.0,34.0,-100.00,South,178,1.0,8.0,62,0.00,,,0.00,70.000000,,2013-04-10 02:43:00,
2013-04-09 19:52:00,46.0,34.0,-100.00,South,178,1.0,8.0,62,0.00,,,0.00,70.000000,,2013-04-10 02:52:00,
2013-04-09 20:02:00,46.0,34.0,-100.00,South,178,1.0,8.0,62,0.00,,,0.00,70.000000,,2013-04-10 03:02:00,
2013-04-09 20:33:00,43.0,34.0,-100.00,SSW,192,0.0,6.0,69,0.00,,,0.00,9.000000,,2013-04-10 03:33:00,
2013-04-09 20:43:00,43.0,34.0,-100.00,SSW,192,0.0,6.0,69,0.00,,,0.00,9.000000,,2013-04-10 03:43:00,
2013-04-09 20:52:00,43.0,34.0,-100.00,SSW,192,0.0,6.0,69,0.00,,,0.00,9.000000,,2013-04-10 03:52:00,
2013-04-09 21:02:00,43.0,34.0,-100.00,SSW,192,0.0,6.0,69,0.00,,,0.00,9.000000,,2013-04-10 04:02:00,
2013-04-09 21:33:00,43.0,36.0,-100.00,WSW,240,0.0,5.0,76,0.00,,,0.00,0.000000,,2013-04-10 04:33:00,
2013-04-09 21:43:00,43.0,36.0,-100.00,WSW,240,0.0,5.0,76,0.00,,,0.00,0.000000,,2013-04-10 04:43:00,
2013-04-09 21:53:00,43.0,36.0,-100.00,WSW,240,0.0,5.0,76,0.00,,,0.00,0.000000,,2013-04-10 04:53:00,
2013-04-09 22:02:00,43.0,36.0,-100.00,WSW,240,0.0,5.0,76,0.00,,,0.00,0.000000,,2013-04-10 05:02:00,
2013-04-09 22:33:00,42.0,37.0,-100.00,West,272,0.0,5.0,82,0.00,,,0.00,0.000000,,2013-04-10 05:33:00,
2013-04-09 22:43:00,42.0,37.0,-100.00,West,272,0.0,5.0,82,0.00,,,0.00,0.000000,,2013-04-10 05:43:00,
2013-04-09 22:53:00,42.0,37.0,-100.00,West,272,0.0,5.0,82,0.00,,,0.00,0.000000,,2013-04-10 05:53:00,
2013-04-09 23:02:00,42.0,37.0,-100.00,West,272,0.0,5.0,82,0.00,,,0.00,0.000000,,2013-04-10 06:02:00,
2013-04-09 23:32:00,41.0,35.0,-100.00,SSE,167,0.0,4.0,80,0.00,,,0.00,0.000000,,2013-04-10 06:32:00,
2013-04-09 23:42:00,41.0,35.0,-100.00,SSE,167,0.0,4.0,80,0.00,,,0.00,0.000000,,2013-04-10 06:42:00,
2013-04-09 23:52:00,41.0,35.0,-100.00,SSE,167,0.0,4.0,80,0.00,,,0.00,0.000000,,2013-04-10 06:52:00,